Погода во Фрай-Бентосе

Уругвай     33°06′59″S   58°18′50″W
темп.,
°C
ветер,
м/с
пор.,
м/с
влажн.,
%
обл.,
%
осадки,
мм/ч
давл.,
гПа
погр.,
м
9 августа, вт
вт900:00+11вюв396992 0.0 1028432
03:00+11вюв3966100 0.0 1028433
06:00+8юв3775100 0.0 1029219
09:00+9вюв377474 0.0 1031298
12:00+14юв46535 0.0 10311330
15:00+16юв564650 0.0 10291825
18:00+12юв33596 0.0 102943
21:00+9юв33685 0.0 103135
10 августа, ср
ср1000:00+7в37780 0.0 1030136
03:00+6в38830 0.0 1029156
06:00+5всв23930 0.0 102959
09:00+7всв24805 0.0 1029162
12:00+13св3454100 0.0 1028762
15:00+15ссв4547100 0.0 10251174
18:00+12ссв3365100 0.0 102446
21:00+8св3778100 0.0 1025129
11 августа, чт
чт1100:00+7св38785 0.0 1025141
03:00+6св37910 0.0 1024130
06:00+5ссв35940 0.0 102491
09:00+8ссв48850 0.0 1025223
12:00+15с57620 0.0 1025831
15:00+17с67530 0.0 10211241
18:00+14ссв47710 0.0 1020126
21:00+10св48870 0.0 1020134
12 августа, пт
пт1200:00+9св3993100 0.0 1020170
03:00+9св31095100 0.0 1019229
06:00+9св31095100 0.0 1017238
09:00+11св41088100 0.0 1018300
12:00+17ссв686697 0.0 1017662
15:00+20с566024 0.0 10141138
18:00+17ссв35745 0.0 101484
21:00+13ссв37925 0.0 1016120
13 августа, сб
сб1300:00+13ссв35940 0.0 101692
03:00+12с22940 0.0 101621
06:00+11ссв33950 0.0 101649
09:00+13св22860 0.0 1017108
12:00+20св33630 0.0 1017663
15:00+22св44511 0.0 10151195
18:00+19всв33690 0.0 101443
21:00+15всв48880 0.0 1015138